EW2984 Weather Reports


Display with metric or nautical units.
time (UTC)temp
F
wind
direction
speed
MPH
gust
MPH
rain 1hr
in
rain 24hr
in
rain mn
in
humidity
%
barometer
mb
20260502163056 54 72 0.0 5.0 0.00 0.05 0.03 51 1014.1
20260502161622 54 39 0.0 3.0 0.00 0.05 0.03 56 1014.3
20260502160120 53 46 0.0 3.0 0.00 0.05 0.03 53 1014.6
20260502151550 52 316 0.0 4.0 0.00 0.05 0.03 58 1014.6
20260502123106 46 19 0.0 3.0 0.00 0.05 0.03 80 1014.6
20260502121531 45 225 0.0 2.0 0.00 0.05 0.03 82 1014.7
20260502114527 44 304 0.0 1.0 0.00 0.05 0.03 85 1014.5
20260502113025 43 236 0.0 1.0 0.00 0.05 0.03 87 1014.5
20260502111530 43 103 0.0 1.0 0.00 0.05 0.03 90 1014.3
20260502110028 43 119 0.0 1.0 0.00 0.05 0.03 91 1014.3
20260502104523 43 222 0.0 0.0 0.00 0.05 0.03 90 1014.5
20260502103022 43 201 0.0 2.0 0.00 0.05 0.03 90 1014.2
20260502101519 43 58 0.0 1.0 0.00 0.05 0.03 90 1013.9
20260502091513 44 148 0.0 2.0 0.00 0.05 0.03 87 1013.6
20260502070058 47 214 0.0 2.0 0.00 0.05 0.03 96 1012.5
20260502064556 47 201 0.0 0.0 0.00 0.05 0.03 96 1012.6
20260502063059 48 201 0.0 0.0 0.01 0.05 0.03 96 1012.8
20260502061551 48 201 0.0 0.0 0.02 0.05 0.03 96 1012.8
20260502060050 48 201 0.0 0.0 0.02 0.05 0.03 96 1013.1
20260502054550 48 201 0.0 0.0 0.02 0.05 0.03 95 1013.2
20260502053047 48 201 0.0 0.0 0.01 0.04 0.02 95 1013.2
20260502051548 48 201 0.0 0.0 0.00 0.03 0.01 94 1013.4
20260502050050 49 201 0.0 0.0 0.01 0.03 0.01 93 1013.2
20260502044545 49 201 0.0 0.0 0.01 0.03 0.01 93 1013.3
20260502043046 49 201 0.0 0.0 0.02 0.03 0.01 91 1013.1
20260502041538 50 201 0.0 0.0 0.02 0.03 0.01 92 1013.5
20260502040035 50 215 0.0 0.0 0.01 0.02 0.00 91 1013.5
20260502034535 50 215 0.0 0.0 0.02 0.02 0.02 91 1013.0
20260502033042 51 215 0.0 0.0 0.01 0.01 0.01 91 1012.9
20260502031534 51 215 0.0 1.0 0.01 0.01 0.01 88 1013.2
20260502030033 52 215 0.0 1.0 0.01 0.01 0.01 84 1012.9
20260502024532 53 248 0.0 1.0 0.00 0.00 0.00 75 1012.4
20260502023032 54 143 0.0 1.0 0.00 0.00 0.00 73 1012.1
20260502021531 54 161 1.0 6.0 0.00 0.00 0.00 72 1012.0
20260502020030 54 94 0.0 4.0 0.00 0.00 0.00 75 1012.1
20260502014533 54 122 0.0 1.0 0.00 0.00 0.00 75 1011.8
20260502013028 53 197 0.0 1.0 0.00 0.00 0.00 75 1011.9
20260502011529 53 214 0.0 1.0 0.00 0.00 0.00 79 1011.8
20260502010033 55 147 0.0 1.0 0.00 0.00 0.00 76 1011.9
20260502004545 56 124 0.0 1.0 0.00 0.00 0.00 69 1012.0
20260502003026 56 124 0.0 1.0 0.00 0.00 0.00 65 1011.3
20260502001525 56 123 0.0 1.0 0.00 0.00 0.00 66 1011.1
20260502000029 56 128 0.0 2.0 0.00 0.00 0.00 66 1010.8
20260501234524 56 118 0.0 4.0 0.00 0.00 0.00 66 1010.9
20260501233022 57 146 0.0 4.0 0.00 0.00 0.00 66 1011.0
20260501231522 58 122 0.0 1.0 0.00 0.00 0.00 64 1011.1
20260501230026 59 207 0.0 2.0 0.00 0.00 0.00 57 1011.0
20260501224521 60 119 0.0 3.0 0.00 0.00 0.00 54 1010.8
20260501223022 61 134 0.0 3.0 0.00 0.00 0.00 50 1010.6
20260501221520 61 214 0.0 1.0 0.00 0.00 0.00 48 1010.4
20260501220020 62 221 0.0 1.0 0.00 0.00 0.00 48 1010.6
20260501214520 62 179 0.0 3.0 0.00 0.00 0.00 45 1010.4
20260501213030 63 226 0.0 4.0 0.00 0.00 0.00 46 1010.5
20260501211515 64 181 1.0 6.0 0.00 0.00 0.00 46 1010.7
20260501210032 63 246 0.0 4.0 0.00 0.00 0.00 47 1010.9
20260501204521 63 210 0.0 2.0 0.00 0.00 0.00 45 1010.8
20260501203115 65 224 1.0 4.0 0.00 0.00 0.00 44 1010.8
20260501201518 66 139 1.0 5.0 0.00 0.00 0.00 45 1011.0
20260501200009 66 85 1.0 6.0 0.00 0.00 0.00 45 1011.1
20260501194506 66 268 0.0 5.0 0.00 0.00 0.00 45 1011.4
20260501193001 64 246 0.0 3.0 0.00 0.00 0.00 43 1011.7
20260501191503 64 207 1.0 6.0 0.00 0.00 0.00 44 1011.8
20260501190133 64 142 0.0 4.0 0.00 0.00 0.00 47 1012.1
20260501184611 64 127 0.0 4.0 0.00 0.00 0.00 51 1012.1
20260501183053 63 239 1.0 4.0 0.00 0.00 0.00 46 1012.5
20260501181549 61 167 1.0 5.0 0.00 0.00 0.00 49 1012.8